Regional Weather Roundup
Issued by NWS Kansas City/Pleasant Hill, MO

Home | Current Version | Previous Version | Graphics & Text | Print | Product List | Glossary Off
Versions: 1 2 3 4 5 6 7 8 9 10 11 12 13 14 15 16 17 18 19 20 21 22 23 24 25 26 27 28 29 30 31 32 33 34 35 36 37 38 39 40 41 42 43 44 45 46 47 48 49 50

000
ASUS43 KEAX 252310
RWREAX

WEATHER ROUNDUP FOR EASTERN KANSAS AND NORTHWEST MISSOURI
NATIONAL WEATHER SERVICE KANSAS CITY/PLEASANT HILL MO
500 PM CST THU DEC 25 2014

KSZ040-057-103>105-MOZ028-029-037-043-260000-
...KANSAS CITY METROPOLITAN AREA...

CITY           SKY/WX    TMP DP  RH WIND       PRES   REMARKS
K.C. INTL      CLOUDY    50  29  44 S25G31    29.69R
K.C. DOWNTOWN  CLOUDY    53  28  38 S14G22    29.71R
LEES SUMMIT    MOCLDY    51  27  39 S18G32    29.71F
OLATHE - IXD   CLOUDY    50  30  46 S21G30    29.70R
OLATHE - OJC   CLOUDY    50  28  42 S22G32    29.70R
LAWRENCE       CLOUDY    51  29  42 S21G28    29.69R

$$

MOZ001>008-011>017-020>025-030>033-038>040-044>046-053-054-260000-
...NORTHERN AND CENTRAL MISSOURI...

CITY           SKY/WX    TMP DP  RH WIND       PRES   REMARKS
ST. JOSEPH     CLOUDY    51  31  46 S15G25    29.69R
MOSBY          CLOUDY    52  30  43 S8        29.72S
WARRENSBURG    PTCLDY    50  30  46 SE15      29.76S
WHITEMAN AFB   CLOUDY    50  31  48 S15       29.76F
CLINTON        MOCLDY    52  32  46 S13       29.80R
SEDALIA        MOCLDY    50  30  46 S17       29.80F
WARSAW         NOT AVBL
MARSHALL       MOCLDY    52  34  50 S16       29.79F
CHILLICOTHE      N/A     50  32  50 SE13G21   29.75F
MOBERLY        PTCLDY    48  28  46 S12       29.83F
KIRKSVILLE     CLEAR     44  31  60 SE13      29.79F

$$

MOZ041-047>049-056>058-063>065-088>090-097-260000-
...EASTERN AND SOUTHERN MISSOURI...

CITY           SKY/WX    TMP DP  RH WIND       PRES   REMARKS
ST. LOUIS INTL MOCLDY    50  32  50 S10G24    29.98R
SPIRIT OF STL  CLEAR     49  29  46 S7        29.96R
COLUMBIA       CLEAR     48  29  47 S18       29.85F
JEFFERSON CITY PTCLDY    50  28  42 SE9       29.88F
MEXICO         CLEAR     48  36  61 S14       29.87S
HANNIBAL       CLEAR     48  27  43 SE8       29.87F
ROLLA          CLEAR     45  30  55 S12       29.90F
LEBANON        MOCLDY    46  28  49 S16       29.89F
OSAGE BEACH    PTCLDY    50  27  40 S12G21    29.88S
SPRINGFIELD    MOCLDY    50  27  40 S17       29.86S
BRANSON        MOCLDY    48  28  46 S17       29.93S
NEVADA         CLOUDY    50  32  50 S18       29.79F
JOPLIN         CLOUDY    53  26  35 S21G26    29.82R
WEST PLAINS    PTCLDY    48  28  46 S10       29.98S

$$

IAZ060-094-KSZ022-034>040-054-083-096-NEZ052-066-093-260000-
...KANSAS...SOUTHEAST NEBRASKA AND IOWA...

CITY           SKY/WX    TMP DP  RH WIND       PRES   REMARKS
TOPEKA         CLOUDY    53  30  41 S15G22    29.67R
MANHATTAN      CLOUDY    53  29  39 S13G22    29.61R
EMPORIA        MOCLDY    51  28  41 S17       29.65R
CHANUTE        CLOUDY    52  30  43 S21G29    29.72S
WICHITA        CLOUDY    53  28  38 S22G29    29.64R
OMAHA          PTCLDY    46  33  60 S8        29.64R
LINCOLN        CLEAR     42  30  62 S8        29.61R
FALLS CITY     MOCLDY    47  33  58 S14       29.63R
LAMONI         CLOUDY    47  31  53 S14       29.71R
DES MOINES     MOCLDY    46  31  55 S10       29.73R

$$



USA.gov is the U.S. government's official web portal to all federal, state and local government web resources and services.